Content
SEND FEEDBACK

Daily
Averages
Monthly
Summary
United States of America

RED ROCK, TEXAS


Home > North America > United States > Texas
Elevation: 500 feet     Latitude: 29 58N     Longitude: 097 27W

WEATHER
 
SELECT A DAY
Number of Records: 189,898;   Date Range: 7/1/96 - 11/27/14
 
SHARE

PRINT THIS DATA

[ ← Previous Day ]
WEATHER ALMANAC - JANUARY 23, 2013
[ Next Day → ]
[ °C ]   °F
Weather ElementAverageHighLow
Temperature57 °F73.9 °F (3:53 pm)43 °F (2:53 am)
Dewpoint52.5 °F57 °F (11:53 am)42.1 °F (2:53 am)
Humidity87.4 %100 % (3:03 am)50 % (4:53 pm)
Barometer30.27 in30.35 in (10:15 am)30.19 in (5:53 pm)
Wind Speed5.3 mph16.1 mph (1:16 pm)
Wind Gust23 mph (1:53 pm)
Weather ElementAverage
Visibility5 mi
Wind DirectionSE (137.1 °)

Weather ElementTotal
Precipitation---
Heating Degree Days6.6 (Base 65)
Growing Degree Days8.5 (Base 50)
Averaged from 38 records on January 23, 2013
WEATHER CONDITIONS BREAKOUT
WIND DIRECTION BREAKOUT
WEATHER BY HOUR - JANUARY 23, 2013
[ °C ]   °F
Local TimeTemperatureDewpointHumidityBarometerVisibilityWind DirectionWind SpeedGust SpeedPrecipitationEventsConditions
1:53 AM46.0 °F44.1 °F93 %30.27 in10.0 miCalmClear
2:53 AM43.0 °F42.1 °F97 %30.28 in7.0 miCalmScattered Clouds
3:03 AM44.6 °F44.6 °F100 %30.28 in7.0 miCalmMostly Cloudy
3:19 AM48.2 °F48.2 °F100 %30.28 in0.2 miSSW (210°)3.5 mphOvercast
3:33 AM50.0 °F50.0 °F100 %30.28 in2.5 miSSW (210°)5.8 mphOvercast
3:42 AM51.8 °F51.8 °F100 %30.28 in0.2 miSSW (200°)4.6 mphOvercast
3:53 AM52.0 °F52.0 °F100 %30.27 in0.0 miSouth (190°)3.5 mphOvercast
4:21 AM53.6 °F53.6 °F100 %30.27 in0.0 miSouth (170°)8.1 mphFogFog
4:53 AM53.1 °F53.1 °F100 %30.26 in0.0 miSouth (180°)5.8 mphFogFog
5:03 AM53.6 °F53.6 °F100 %30.27 in0.0 miSouth (180°)9.2 mphFogFog
5:18 AM53.6 °F53.6 °F100 %30.27 in0.0 miSouth (180°)8.1 mphFogFog
5:53 AM52.0 °F52.0 °F100 %30.27 in0.0 miSouth (190°)4.6 mphFogFog
6:09 AM51.8 °F51.8 °F100 %30.28 in0.2 miSouth (180°)3.5 mphFogFog
6:31 AM51.8 °F51.8 °F100 %30.29 in0.2 miCalmFogFog
6:45 AM51.8 °F51.8 °F100 %30.29 in0.2 miSouth (180°)3.5 mphFogFog
6:53 AM52.0 °F52.0 °F100 %30.29 in0.2 miSouth (190°)3.5 mphFogFog
7:53 AM52.0 °F52.0 °F100 %30.31 in0.2 miCalmFogFog
8:26 AM53.6 °F53.6 °F100 %30.31 in0.2 miSouth (180°)3.5 mphFogFog
8:53 AM53.1 °F53.1 °F100 %30.32 in0.2 miCalmFogFog
9:44 AM53.6 °F53.6 °F100 %30.34 in0.8 miCalmOvercast
9:53 AM54.0 °F54.0 °F100 %30.34 in0.8 miCalmOvercast
10:15 AM53.6 °F53.6 °F100 %30.35 in3.0 miCalmOvercast
10:53 AM59.0 °F55.9 °F90 %30.35 in6.0 miSW (220°)5.8 mphMostly Cloudy
11:53 AM66.0 °F57.0 °F73 %30.31 in10.0 miSSW (200°)9.2 mph18.4 mphMostly Cloudy
12:27 PM68.0 °F55.4 °F64 %30.30 in10.0 miSSW (210°)12.7 mphMostly Cloudy
12:53 PM69.1 °F55.9 °F63 %30.27 in10.0 miSSW (200°)13.8 mphMostly Cloudy
1:16 PM71.6 °F55.4 °F57 %30.26 in10.0 miSouth (190°)16.1 mph20.7 mphMostly Cloudy
1:53 PM72.0 °F55.9 °F57 %30.23 in10.0 miSouth (190°)15.0 mph23.0 mphMostly Cloudy
2:53 PM73.4 °F55.4 °F53 %30.22 in10.0 miSSW (200°)10.4 mph23.0 mphScattered Clouds
3:53 PM73.9 °F55.0 °F52 %30.20 in10.0 miSW (220°)11.5 mph23.0 mphScattered Clouds
4:53 PM73.9 °F54.0 °F50 %30.20 in10.0 miSSW (200°)13.8 mph19.6 mphPartly Cloudy
5:53 PM71.1 °F54.0 °F55 %30.19 in10.0 miSSW (200°)9.2 mphPartly Cloudy
6:53 PM63.0 °F53.1 °F70 %30.20 in10.0 miSSW (200°)4.6 mphClear
7:53 PM57.9 °F52.0 °F81 %30.21 in10.0 miSouth (180°)4.6 mphClear
8:53 PM53.1 °F50.0 °F89 %30.22 in10.0 miCalmClear
9:53 PM54.0 °F51.1 °F90 %30.23 in10.0 miSouth (180°)4.6 mphClear
10:53 PM55.9 °F53.1 °F90 %30.22 in10.0 miSouth (180°)4.6 mphClear
11:53 PM55.9 °F55.0 °F97 %30.22 in10.0 miCalmClear
Hourly data recorded from KAUS, located miles away from Red Rock, Texas







STORIES FROM OUR PARTNERS